Overview Statistics Trail Chart Weather Telemetry Raw packets
 

This is the latest recevied weather packets stored in our database for station/object 4S6DRJ-13. If no packets are shown the sender has not sent any weather packets the latest 10 day(s).

<< 510 511 512 513 514 515 516 >>
Time Temp. Humidity Pressure Rain* Wind** Luminosity Snow
1787669372 27.78° C 84% 1011 hPa 0 mm 0.45 m/s, 245° 0 W/m² -
1787669311 27.78° C 84% 1011.1 hPa 0 mm 0.89 m/s, 215° 0 W/m² -
1787669250 27.78° C 84% 1011.2 hPa 0 mm 0.89 m/s, 217° 0 W/m² -
1787669189 27.78° C 85% 1011 hPa 0 mm 0.45 m/s, 225° 0 W/m² -
1787669128 27.78° C 85% 1011 hPa 0 mm 0.89 m/s, 239° 0 W/m² -
1787669067 27.78° C 85% 1011.2 hPa 0 mm 0.89 m/s, 207° 0 W/m² -
1787669006 27.78° C 85% 1011 hPa 0 mm 1.79 m/s, 206° 0 W/m² -
1787668945 27.78° C 85% 1011.1 hPa 0 mm 0 m/s 0 W/m² -
1787668884 27.78° C 85% 1011.1 hPa 0 mm 1.79 m/s, 254° 0 W/m² -
1787668823 27.78° C 86% 1011 hPa 0 mm 0.45 m/s, 258° 0 W/m² -
1787668762 27.78° C 86% 1011 hPa 0 mm 0.89 m/s, 227° 0 W/m² -
1787668701 27.78° C 86% 1010.9 hPa 0 mm 1.34 m/s, 51° 0 W/m² -
1787668640 27.78° C 86% 1011.1 hPa 0 mm 0.89 m/s, 217° 0 W/m² -
1787668579 27.78° C 86% 1011 hPa 0 mm 1.34 m/s, 234° 0 W/m² -
1787668518 27.78° C 86% 1011.1 hPa 0 mm 0.45 m/s, 279° 0 W/m² -
1787668457 27.78° C 86% 1011 hPa 0 mm 0.89 m/s, 258° 0 W/m² -
1787668396 27.78° C 86% 1010.8 hPa 0 mm 0.45 m/s, 317° 0 W/m² -
1787668335 27.78° C 86% 1010.9 hPa 0 mm 0.89 m/s, 100° 0 W/m² -
1787668274 27.78° C 86% 1010.9 hPa 0 mm 0.45 m/s, 203° 0 W/m² -
1787668213 27.78° C 86% 1010.8 hPa 0 mm 0.45 m/s, 217° 0 W/m² -
1787668152 27.78° C 86% 1011 hPa 0 mm 1.79 m/s, 251° 0 W/m² -
1787668091 27.78° C 86% 1010.9 hPa 0 mm 1.34 m/s, 241° 0 W/m² -
1787668030 27.78° C 86% 1010.7 hPa 0 mm 0.89 m/s, 237° 0 W/m² -
1787667969 27.78° C 86% 1010.8 hPa 0 mm 0.89 m/s, 249° 0 W/m² -
1787667908 27.78° C 86% 1010.6 hPa 0 mm 1.34 m/s, 351° 0 W/m² -

* Rain latest hour (hover to see other rain measurements)
** Current wind speed in m/s (hover to see current wind gust speed)